www.pogodaiklimat.ru

АРХИВ ПОГОДЫ в Краснодаре

Время (UTC), дата Ветер
(напр.,м/с)
 
Видим.   Явления Облачность Т
(С)
Тd
(С)
f
(%)
Тe
(С)
Тes
(С)
Комфортность P
(гПа)
Po
(гПа)
Тmin
(С)
Tmax
(С)
R
(мм)
S
(см)
12 21.05 СВ 4-10
{11}
10 км 5/0
[Ci fib]
+28.4 +6.1 24 +27 +35 жарко 1013.7 1010.2
15 21.05 СВ 4-11
{11}
10 км 3/0
[Ci fib]
+27.6 +6.3 26 +27 +28 жарко 1012.5 1009.0 +28.8
18 21.05 СВ 2
{11}
10 км ясно +23.2 +5.2 31 +23 +23 комфорт 1013.2 1009.7
21 21.05 СВ 2 10 км ясно +19.7 +4.6 37 +21 +21 комфорт 1013.1 1009.6
00 22.05 СВ 2 10 км ясно +18.4 +4.6 40 +19 +19 тепло 1013.2 1009.6
03 22.05 В 3 10 км 3/0
[Ci fib]
+17.3 +7.9 54 +17 +18 по сезону 1013.2 1009.7 +16.9
06 22.05 В 4-10
{11}
10 км 3/0
[Ci fib]
+22.3 +3.7 30 +22 +29 комфорт 1013.9 1010.4
09 22.05 В 3
{11}
10 км 6/0
[Ci fib]
+27.3 +4.0 22 +26 +39 жарко 1013.7 1010.3
12 22.05 В 4
{11}
10 км 8/0
[Ci fib]
+29.1 +4.7 21 +27 +35 жарко 1012.7 1009.3
15 22.05 В 4
{11}
10 км 8/0
[Ci fib]
+27.9 +4.1 22 +26 +28 жарко 1012.5 1009.0 +29.5
18 22.05 СВ 3
{11}
10 км 8/0
[Ci fib]
+23.2 +2.6 26 +23 +23 комфорт 1013.2 1009.7
21 22.05 СВ 2 10 км ясно +20.2 +3.0 32 +21 +21 комфорт 1012.8 1009.3
00 23.05 СВ 2 10 км ясно +17.4 +3.6 40 +18 +18 тепло 1012.8 1009.3
03 23.05 СВ 1 10 км 3/0
[Ci fib]
+15.7 +4.1 46 +17 +17 по сезону 1012.9 1009.3 +15.4
06 23.05 СВ 3 10 км 6/0
[Ci fib]
+20.6 +5.6 37 +22 +29 комфорт 1013.0 1009.5
09 23.05 В 2 10 км 9/0
[Ci fib]
+26.0 +7.3 30 +26 +41 жарко 1012.9 1009.4
12 23.05 СВ 3
{10}
10 км 8/0
[Ci sp]
+28.3 +5.7 24 +27 +36 жарко 1011.8 1008.3
15 23.05 СВ 3 10 км 10/0
[Ci fib]
+28.0 +7.8 28 +28 +29 жарко 1010.4 1007.0 +28.9
18 23.05 СВ 2 10 км 10/0
[Ci fib]
+24.0 +6.8 33 +24 +24 комфорт 1011.5 1008.1
21 23.05 В 2 10 км 10/0
[Ci fib]
+21.3 +8.3 43 +22 +22 комфорт 1011.9 1008.4
00 24.05 штиль 0 10 км 10/0
[Ci fib]
+18.6 +7.8 49 +19 +19 тепло 1012.0 1008.5
03 24.05 СВ 1 10 км 10/3 1000 м
[Sc Ac trans Ci fib]
+17.4 +7.4 52 +18 +19 тепло 1012.2 1008.7 +17.4
06 24.05 ЮВ 1 10 км 4/0
[Cc]
+22.3 +12.6 54 +25 +36 комфорт 1012.2 1008.7
09 24.05 З 2 10 км 4/3 1000 м
[Cu hum Ci fib]
+26.1 +13.6 46 +28 +41 жарко 1011.8 1008.3
12 24.05 Ю 2 10 км 3/1 1000 м
[Cu hum Ac trans Ci fib]
+27.1 +12.1 39 +28 +39 жарко 1011.4 1008.0
15 24.05 Ю 1 10 км 8/6 1000 м
[Cu hum Ac trans Ci fib]
+26.8 +13.2 43 +29 +29 жарко 1010.7 1007.3 +27.6
18 24.05 штиль 0 10 км 9/3 1000 м
[Sc Ac trans Ci fib]
+24.0 +14.7 56 +27 +27 жарко 1010.6 1007.1
21 24.05 штиль 0 10 км 9/1 1000 м
[Sc Ac trans Ci fib]
+21.4 +15.3 68 +25 +25 комфорт 1010.8 1007.3
00 25.05 штиль 0 10 км 10/4 1000 м
[Sc Ac trans]
+20.4 +15.2 72 +23 +23 комфорт 1010.0 1006.5
03 25.05 Ю 1 10 км 8/6 1000 м
[Sc diur, vesp Ac trans]
+18.9 +15.6 81 +21 +22 комфорт 1010.3 1006.8 +18.6
06 25.05 ЮВ 1 10 км 9/4
[Sc Ac trans]
+23.9 +15.4 59 +27 +30 жарко 1010.8 1007.3
09 25.05 В 2 10 км 8/1 1000 м
[Sc Ac trans Ci fib]
+27.5 +12.5 39 +29 +39 жарко 1010.3 1006.9
12 25.05 Ю 2 10 км 6/3 1000 м
[Cb cap Ac trans Ci fib]
+29.1 +13.3 38 +31 +38 жарко 1009.1 1005.7
15 25.05 СВ 2 10 км 4/4 1000 м
[Sc diur, vesp]
+29.2 +13.1 37 +31 +32 жарко 1008.2 1004.8 +29.8
18 25.05 СВ 2 10 км ясно +25.1 +13.1 47 +27 +27 жарко 1008.6 1005.1
21 25.05 СВ 2 10 км ясно +22.7 +12.1 51 +25 +25 комфорт 1007.7 1004.2
00 26.05 ЮЗ 1 10 км ясно +19.5 +13.8 70 +22 +22 комфорт 1007.4 1003.9
03 26.05 ЮЗ 1 10 км ясно +19.5 +13.8 70 +22 +23 комфорт 1007.4 1003.9
06 26.05 Ю 2 10 км 6/0
[Ci fib]
+25.6 +10.9 40 +27 +36 жарко 1008.0 1004.6
09 26.05 Ю 2 10 км 8/3 1000 м
[Cu hum Ci fib]
+29.2 +9.3 29 +29 +40 жарко 1008.0 1004.6
12 26.05 ЮЗ 3 10 км 4/3 1000 м
[Cu med, cong Ac trans Ci fib]
+30.3 +7.1 23 +29 +36 жарко 1007.6 1004.2
15 26.05 З 2 10 км 10/3 1000 м
[Cb cap Ac trans Ci fib]
+29.8 +13.7 37 +31 +32 жарко 1007.4 1004.0 +31.1
18 26.05 С 2 10 км 10/3 1000 м
[Cb cap Ci fib]
+25.1 +16.9 60 +29 +29 душно 1009.6 1006.2
21 26.05 ЮВ 2 10 км 10/5 1000 м
[Cb cap Ac trans Ci fib]
+21.6 +13.7 61 +24 +24 комфорт 1009.7 1006.2
00 27.05 Ю 1 10 км 10/8 1000 м
[Sc Ac trans Ci fib]
+19.7 +14.9 74 +23 +23 комфорт 1009.6 1006.1
03 27.05 З 1 10 км 6/3 1000 м
[Sc Ci fib]
+18.5 +15.4 82 +20 +21 тепло 1010.1 1006.6 +18.0
06 27.05 ЮЗ 2 10 км 6/4 1000 м
[Cu hum Ac trans Ci fib]
+23.4 +15.3 60 +28 +33 душно 1010.2 1006.8
09 27.05 Ю 2 10 км 6/3 1000 м
[Cu hum Ac trans Ci fib]
+27.4 +14.0 44 +30 +40 жарко 1009.1 1005.7
12 27.05 Ю 2 10 км 10/3 1000 м
[Cu hum Ac trans Ci fib]
+28.6 +12.6 37 +30 +35 жарко 1007.7 1004.3
15 27.05 штиль 0 10 км 10/4 1000 м
[Cb cap Ac trans Ci fib]
+27.9 +11.9 37 +29 +30 жарко 1006.8 1003.4 +29.1
18 27.05 СВ 1 10 км 9/3 1000 м
[Sc Ac trans Ci fib]
+25.1 +14.9 53 +28 +28 жарко 1005.6 1002.2
21 27.05 В 1 10 км 9/3 1000 м
[Sc Ac trans Ci fib]
+21.6 +15.2 67 +25 +25 комфорт 1004.0 1000.5
00 28.05 В 1 10 км 10/6 1000 м
[Cb cap Ac trans]
+21.3 +15.7 70 +25 +25 комфорт 1002.7 999.2
03 28.05 В 2 10 км 9/8 1000 м
[Cb cap Ac trans]
+21.9 +15.6 67 +26 +26 душно 1001.8 998.3 +21.2
06 28.05 В 2 10 км {ливн. осадки} 8/1 1000 м
[Cb cap Ac trans]
+25.1 +14.7 52 +28 +33 жарко 1001.5 998.0
09 28.05 Ю 3 10 км 6/0
[Ac trans Ci fib]
+29.0 +13.2 38 +31 +41 жарко 1001.0 997.6

 

Местоположение метеостанции Краснодар (Краснодарский край, Россия): широта 45.03 долгота 39.15 высота над уровнем моря 34 м.

В архиве по умолчанию представлена погода в Краснодаре за последнюю неделю. Архивные данные за месяц целиком и за предыдущие месяцы, начиная с января 2011 года, Вы можете получить, выбрав интересующий диапазон дат из раскрывающегося списка и нажав кнопку "Ввод!".

Внимание! Время в таблицах - всемирное. Для получения местного времени необходимо прибавить поправку, которая в Краснодаре равна 3 ч.

Ветер - указаны скорость ветра в м/с - средняя за 10 мин, порывы в срок и между сроками (в фигурных скобках) и направление, откуда дует ветер: С - северный, СВ - северо-восточный, В - восточный, ЮВ - юго-восточный, Ю - южный, ЮЗ - юго-западный, З - западный, СЗ - северо-западный.
Видимость - горизонтальная дальность видимости в метрах или километрах. При видимости от 1 до 10 км при отсутствии осадков обычно наблюдается дымка, при ухудшении видимости до 1 км и менее - туман. В сухую погоду видимость может ухудшаться дымом, пылью или мглою.
Явления - указаны атмосферные явления, наблюдавшиеся в срок или в последний час перед сроком; фигурными скобками обозначены явления, наблюдавшиеся между сроками (за 1-3 часа до срока); квадратными скобками обозначены град или гололедные отложения с указанием их диаметра в мм.
Облачность - указаны через наклонную черту общая и нижняя облачность в баллах и высота нижней границы облаков в метрах; квадратными скобками обозначены формы облаков: Ci - перистые, Cs - перисто-слоистые, Cc - перисто-кучевые, Ac - высококучевые, As - высокослоистые, Sc - слоисто-кучевые, Ns - слоисто-дождевые, Cu - кучевые, Cb - кучево-дождевые. Подробнее классификацию облаков см. в Атласе облаков (PDF).
T - Температура воздуха - температура, измеренная на высоте 2 м над землей.
Td - Температура точки росы - температура, при понижении до которой содержащийся в воздухе водяной пар достигнет насыщения.
f - Относительная влажность воздуха - влажноcть воздуха, измеренная на высоте 2 м над землей.
Te - Эффективная температура - температура, которую ощущает одетый по сезону человек в тени. Характеристика душности погоды. При расчете учитывается влияние влажности воздуха и скорости ветра на теплоощущения человека.
Tes - Эффективная температура на солнце - температура, которую ощущает человек, с поправкой на солнечный нагрев. Характеристика знойности погоды. Зависит от высоты солнца над горизонтом, облачности и скорости ветра. Ночью, в пасмурную погоду, а также при ветре 12 м/с и более поправка равна нулю.
P - Атмосферное давление - приведенное к уровню моря атмосферное давление.
Po - Атмосферное давление - измеренное на уровне метеостанции атмосферное давление.
Tmin - Минимальная температура - минимум температуры воздуха на высоте 2 м над землей.
Tmax - Максимальная температура - максимум температуры воздуха на высоте 2 м над землей.
R - Количество осадков - Количество выпавших осадков, мм. При наведении курсора мыши на число - период времени, за который выпало указанное количество осадков.
S - Снежный покров - Высота снежного покрова, см. При наведении курсора мыши на число - состояние снежного покрова и степень покрытия местности в баллах.